AirNav   ATP
 
 866 users online  

O79 Sierraville Dearwater Airport
Sierraville, California, USA

GOING TO SIERRAVILLE?


FAA INFORMATION EFFECTIVE 06 DECEMBER 2018

Location

FAA Identifier: O79
Lat/Long: 39-34-54.0000N / 120-21-14.5000W
39-34.900000N / 120-21.241667W
39.5816667 / -120.3540278
(estimated)
Elevation: 4984 ft. / 1519.1 m (surveyed)
Variation: 16E (1985)
From city: 1 mile SE of SIERRAVILLE, CA
Time zone: UTC -8 (UTC -7 during Daylight Saving Time)
Zip code: 96126

Airport Operations

Airport use: Open to the public
Control tower: no
ARTCC: OAKLAND CENTER
FSS: RENO FLIGHT SERVICE STATION
NOTAMs facility: RNO (NOTAM-D service available)
Attendance: UNATNDD
Pattern altitude: 5784 ft. MSL
Wind indicator: yes
Segmented circle: yes

Airport Communications

CTAF: 122.9
WX AWOS-2 at O02 (14 nm N): 119.35 (530-832-6942)
WX AWOS-3PT at TRK (19 nm SE): 118.0 (530-587-4599)

Nearby radio navigation aids

VOR radial/distance  VOR name  Freq  Var
SWRr335/24.4SQUAW VALLEY VOR/DME113.2016E
FMGr259/32.4MUSTANG VORTAC117.9016E

Airport Services

Parking: tiedowns
Airframe service: NONE
Powerplant service: NONE
Bottled oxygen: NONE
Bulk oxygen: NONE

Runway Information

Runway 3/21

Dimensions: 3260 x 50 ft. / 994 x 15 m
Surface: asphalt, in good condition
Weight bearing capacity: 
Single wheel: 12.0
Gradient: SW
RUNWAY 3  RUNWAY 21
Latitude: 39-34.723000N39-35.076167N
Longitude: 120-21.502833W120-20.979667W
Elevation: 4983.0 ft.4951.0 ft.
Gradient: 1.0%1.0% UP
Traffic pattern: leftright
Displaced threshold: no193 ft.
Markings: basic, in fair conditionNSTD, in fair condition
Runway end identifier lights: nono
Obstructions: none18 ft. road, 200 ft. from runway, 125 ft. left of centerline
RWY 21 +4' FENCE 0' FM RY END, +18' ROAD O' FM RY END; 125' L.

Airport Ownership and Management from official FAA records

Ownership: Publicly-owned
Owner: COUNTY OF SIERRA
PO BOX 98
DOWNIEVILLE, CA 95936
Phone (530) 289-3201
Manager: TIM BEALS
PO BOX 98
DOWNIEVILLE, CA 95936
Phone (530) 289-3201
SIERRA COUNTY PUBLIC WORKS DEPARTMENT, DOWNIEVILLE.

Airport Operational Statistics

Aircraft operations: avg 23/week *
100% transient general aviation
* for 12-month period ending 31 December 2016

Additional Remarks

A96 ULTRALIGHT ACTIVITY ON & INVOF ARPT.

Instrument Procedures

There are no published instrument procedures at O79.

Some nearby airports with instrument procedures:

O02 - Nervino Airport (14 nm N)
KTRK - Truckee-Tahoe Airport (19 nm SE)
KRTS - Reno/Stead Airport (23 nm E)
KRNO - Reno/Tahoe International Airport (28 nm E)
KGOO - Nevada County Airport (37 nm SW)
 
Loc | Ops | Rwys | IFR | FBO | Links
Com | Nav | Svcs | Stats | Notes


 
Area around O79 (Sierraville Dearwater Airport)
 
Road maps at: MapQuest Bing Google
 
Aerial photo
WARNING: Photo may not be current or correct
Aerial photo of O79 (Sierraville Dearwater Airport)
Photo taken 22-Sep-2011
looking northwest.

Do you have a better or more recent aerial photo of Sierraville Dearwater Airport that you would like to share? If so, please send us your photo.

 
Sectional chart

 
Airport distance calculator
Flying to Sierraville Dearwater Airport? Find the distance to fly.

From to O79

Sunrise and sunset
Times for 14-Dec-2018
 Local
(UTC-8)
 Zulu
(UTC)
Morning civil twilight06:4514:45
Sunrise07:1515:15
Sunset16:3700:37
Evening civil twilight17:0701:07

Current date and time
Zulu (UTC)  15-Dec-2018 01:14:16
Local (UTC-8)  14-Dec-2018 17:14:16
 
METAR
KTRK 
19nm SE 
150045Z 21010G26KT 10SM SKC 04/M08 A3006
KRTS 
23nm E 
150055Z AUTO 23028G43KT 10SM CLR 08/M12 A2997 RMK AO2
KBLU 
24nm SW 
150052Z AUTO 16010G17KT 10SM BKN055 BKN070 OVC085 04/00 A3012 RMK AO2 SLP179 T00390000
KRNO 
28nm E 
150055Z 02017G24KT 10SM FEW100 SCT150 11/M11 A2998 RMK AO2 PK WND 17027/0000 SLP144 ACSL DSNT NE AND SE T01111106
KGOO 
37nm SW 
150055Z AUTO 18005KT 10SM OVC027 09/03 A3010 RMK AO1
KCXP 
37nm SE 
141815Z AUTO 00000KT 10SM CLR 03/M04 A3010 RMK AO2
TAF
KTRK 
19nm SE 
141735Z 1418/1518 23008G16KT P6SM SCT120 OVC160 WS020/21050KT FM141900 19015G30KT P6SM SCT120 OVC160 WS020/21050KT FM142000 20025G40KT P6SM OVC200 WS015/21065KT FM150200 20012G25KT P6SM SCT040 WS020/24040KT FM150500 19010KT P6SM VCSH BKN040 FM151500 19005KT P6SM OVC100
NOTAMs
Click for the latest NOTAMs
NOTAMs are issued by the DoD/FAA and will open in a separate window not controlled by AirNav.

 

 
 

Would you like to see your business listed on this page?

 If your business provides an interesting product or service to pilots, flight crews, aircraft, or users of the Sierraville Dearwater Airport, you should consider listing it here.  To start the listing process, click on the button below
 
Add a business
 

Other Pages about Sierraville Dearwater Airport

Update a link
 
Copyright © AirNav, LLC. All rights reserved. Privacy Policy  Contact